Weather History for Kingman, AZ

Change the Weather History Date:

Sunday, September 9, 2012

  Actual Average Record
Temperature  
Mean Temperature 82 °F 78 °F  
Max Temperature 96 °F 92 °F 107 °F (1910)
Min Temperature 67 °F 64 °F 42 °F (1921)
Degree Days  
Heating Degree Days 0 0  
Month to date heating degree days 0 0  
Since 1 July heating degree days 0 0  
Cooling Degree Days 17 13  
Month to date cooling degree days 153 128  
Year to date cooling degree days 1981 1829  
Growing Degree Days 31 (Base 50)    
Moisture  
Dew Point 60 °F    
Average Humidity 48    
Maximum Humidity 73    
Minimum Humidity 22    
Precipitation  
Precipitation 0.12 in 0.04 in 0.89 in (1997)
Month to date precipitation 0.12 0.42  
Year to date precipitation 6.39 5.69  
Sea Level Pressure  
Sea Level Pressure 29.90 in    
Wind  
Wind Speed 7 mph (South)    
Max Wind Speed 32 mph    
Max Gust Speed 45 mph    
Visibility 10 miles    
Events Rain , Thunderstorm    
T = Trace of Precipitation, MM = Missing Value Source: NWS Daily Summary

Daily Weather History Graph

Daily Weather History Graph

Search for Another Location

Airport:

Trip Planner

Search our weather history database for the weather conditions in past years. The results will help you decide how hot, cold, wet, or windy it might be!

Date:

Astronomy

Sep. 09, 2012 Rise Set
Actual Time 6:14 AM MST 6:50 PM MST
Civil Twilight 5:48 AM MST 7:16 PM MST
Nautical Twilight 5:18 AM MST 7:46 PM MST
Astronomical Twilight 4:47 AM MST 8:16 PM MST
Moon No Moon Rise 2:29 PM MST (9/9)
Length of Visible Light 13h 27m
Length of Day
12h 36m
Last Quarter, 38% of the Moon is Illuminated
Sep 9
Last Quarter
Sep 15
New
Sep 22
First Quarter
Sep 29
Full
Oct 8
Last Quarter

Hourly Weather History & Observations

Time (MST) Temp. Heat Index Dew Point Humidity Pressure Visibility Wind Dir Wind Speed Gust Speed Precip Events Conditions
12:51 AM 75.9 °F - 59.0 °F 56% 29.84 in 10.0 mi SE 9.2 mph - N/A   Clear
1:51 AM 73.9 °F - 59.0 °F 59% 29.84 in 10.0 mi SE 8.1 mph - N/A   Clear
2:51 AM 73.9 °F - 59.0 °F 59% 29.85 in 10.0 mi SE 6.9 mph - N/A   Clear
3:51 AM 73.9 °F - 59.0 °F 59% 29.85 in 10.0 mi ESE 8.1 mph - N/A   Clear
4:51 AM 73.0 °F - 59.0 °F 61% 29.85 in 10.0 mi ESE 12.7 mph - N/A   Clear
5:51 AM 68.0 °F - 57.9 °F 70% 29.87 in 10.0 mi SSE 4.6 mph - N/A   Clear
6:51 AM 70.0 °F - 59.0 °F 68% 29.88 in 10.0 mi SE 8.1 mph - N/A   Clear
7:51 AM 80.1 °F 80.7 °F 59.0 °F 48% 29.88 in 10.0 mi Calm Calm - N/A   Clear
8:51 AM 82.9 °F 82.6 °F 57.9 °F 42% 29.88 in 10.0 mi Calm Calm - N/A   Clear
9:51 AM 86.0 °F 85.0 °F 57.9 °F 38% 29.88 in 10.0 mi Calm Calm - N/A   Clear
10:51 AM 88.0 °F 86.7 °F 57.0 °F 35% 29.87 in 10.0 mi Calm Calm - N/A   Clear
11:51 AM 91.0 °F 88.7 °F 54.0 °F 28% 29.85 in 10.0 mi WNW 4.6 mph - N/A   Clear
12:51 PM 93.9 °F - 48.0 °F 21% 29.83 in 10.0 mi Variable 3.5 mph - N/A   Clear
1:51 PM 93.9 °F 91.4 °F 53.1 °F 25% 29.80 in 10.0 mi South 10.4 mph 18.4 mph N/A   Clear
2:44 PM 89.6 °F - 51.8 °F 27% 30.01 in 10.0 mi ENE 32.2 mph 44.9 mph N/A   Overcast
2:51 PM 86.0 °F - 52.0 °F 31% 29.80 in 10.0 mi NE 25.3 mph 44.9 mph N/A   Overcast
3:29 PM 77.0 °F - 59.0 °F 54% 30.03 in 6.0 mi SSE 21.9 mph 29.9 mph 0.05 in Rain Rain
3:51 PM 72.0 °F - 63.0 °F 73% 29.84 in 9.0 mi SSW 10.4 mph - 0.12 in Rain Light Rain
3:58 PM 73.4 °F - 64.4 °F 73% 30.02 in 10.0 mi SW 12.7 mph - 0.00 in Rain Light Rain
4:24 PM 75.2 °F - 64.4 °F 69% 30.01 in 10.0 mi WSW 12.7 mph - 0.00 in   Overcast
4:43 PM 75.2 °F - 66.2 °F 73% 29.99 in 10.0 mi Calm Calm - 0.00 in   Overcast
4:51 PM 77.0 °F - 64.9 °F 66% 29.79 in 10.0 mi South 6.9 mph - 0.00 in Thunderstorm Mostly Cloudy
4:56 PM 77.0 °F - 64.4 °F 65% 30.00 in 10.0 mi South 8.1 mph - N/A   Mostly Cloudy
5:51 PM 78.1 °F - 61.0 °F 56% 29.80 in 10.0 mi South 10.4 mph - N/A   Clear
6:51 PM 80.1 °F 80.9 °F 60.1 °F 50% 29.81 in 10.0 mi South 8.1 mph - N/A   Clear
7:51 PM 77.0 °F - 60.1 °F 56% 29.83 in 10.0 mi SE 3.5 mph - N/A   Clear
8:51 PM 75.9 °F - 64.0 °F 67% 29.84 in 10.0 mi South 6.9 mph - N/A   Clear
9:51 PM 75.9 °F - 64.0 °F 67% 29.84 in 10.0 mi SSW 3.5 mph - N/A   Mostly Cloudy
10:51 PM 73.0 °F - 64.0 °F 73% 29.87 in 7.0 mi SW 12.7 mph - 0.00 in   Scattered Clouds
11:14 PM 73.4 °F - 64.4 °F 73% 30.09 in 8.0 mi WSW 8.1 mph - N/A   Mostly Cloudy
11:20 PM 73.4 °F - 64.4 °F 73% 30.09 in 8.0 mi SW 13.8 mph - N/A   Scattered Clouds
11:30 PM 73.4 °F - 62.6 °F 69% 30.09 in 8.0 mi Calm Calm - N/A   Mostly Cloudy
11:36 PM 73.4 °F - 64.4 °F 73% 30.09 in 8.0 mi Variable 4.6 mph - N/A   Scattered Clouds
11:51 PM 73.0 °F - 63.0 °F 71% 29.87 in 9.0 mi Calm Calm - N/A   Scattered Clouds